Location: Ivrea
(45.4365°N, 7.8791°E)
Time: 08:37:54
(UTC+02:00)

BlueWalker 3 - Visible Passes

Search period start: 04 October 2024 00:00
Search period end: 14 October 2024 00:00
Orbit: 473 x 486 km, 53.2° (Epoch: 03 October)

Date Brightness Start Highest point End Pass type
(mag) Time Alt. Az. Time Alt. Az. Time Alt. Az.
04 Oct 4.0 05:52:43 10° S 05:55:35 22° SE 05:58:29 10° E visible
05 Oct 4.0 05:26:20 17° SSE 05:27:31 19° SE 05:30:14 10° E visible
05 Oct 1.8 07:01:29 10° WSW 07:05:10 71° NNW 07:08:52 10° NE visible
06 Oct 4.3 04:59:47 17° ESE 04:59:47 17° ESE 05:01:56 10° E visible
06 Oct 1.8 06:34:01 15° WSW 06:37:01 78° NNW 06:40:44 10° NE visible
07 Oct 5.0 04:33:06 12° E 04:33:06 12° E 04:33:33 10° E visible
07 Oct 1.7 06:07:18 34° WSW 06:08:49 86° NNW 06:12:33 10° ENE visible
08 Oct 1.6 05:40:29 82° SSW 05:40:36 86° SE 05:44:19 10° ENE visible
09 Oct 3.1 05:13:33 40° ENE 05:13:33 40° ENE 05:16:03 10° ENE visible
09 Oct 3.0 06:47:45 13° WNW 06:50:37 30° NNW 06:53:57 10° NE visible
10 Oct 4.5 04:46:31 20° ENE 04:46:31 20° ENE 04:47:45 10° ENE visible
10 Oct 2.9 06:20:42 22° WNW 06:22:16 32° NNW 06:25:39 10° NE visible
11 Oct 2.8 05:53:35 33° NNW 05:53:54 33° NNW 05:57:18 10° NE visible
12 Oct 3.3 05:26:24 30° NNE 05:26:24 30° NNE 05:28:56 10° NE visible
12 Oct 3.5 07:01:08 10° NW 07:04:12 24° N 07:07:16 10° ENE visible
13 Oct 4.3 04:59:10 20° NE 04:59:10 20° NE 05:00:32 10° NE visible
13 Oct 3.5 06:33:21 14° NW 06:35:44 24° N 06:38:47 10° NE visible
